Location: Gollag?dem
(16.8053°N, 80.8024°E)
Time: 14:30:05
(UTC+00:00)

GPS 2-17 Rocket1 - Pass Details

Date: 13 August 2020
Orbit: 571 x 659 km, 20.3° (Epoch: 24 September)

Event Time Altitude Azimuth Distance (km) Brightness Sun altitude
Rises 14:47:47 0° 281° (W) 2,854 7.7 -24.4°
Reaches altitude 10° 14:50:09 10° 279° (W) 1,935 6.6 -24.9°
Enters shadow 14:53:59 60° 251° (WSW) 677 3.3 -25.8°
